GEFSSGP_prec_meanprecacc_246.txt.gz
Total_Precipitation_Accumulation
0.28 0.33 0.42 0.55 0.49 0.35 0.15 0.05 0.01 0.02 0.04 0.04 0.05 0.05 0.06 0.09 0.13 0.18 0.14 0.15 0.14 0.16 0.23 0.40 0.57 0.58 0.52 0.46 0.41 0.38 0.38 0.39 0.43 0.46 0.46 0.43 0.41 0.42 0.49 0.51 0.49 0.49 0.52 0.62 0.71 0.68 0.64 0.58 0.39
0.33 0.47 0.67 0.76 0.52 0.32 0.16 0.05 0.02 0.02 0.04 0.04 0.05 0.06 0.09 0.12 0.14 0.14 0.16 0.22 0.25 0.23 0.28 0.40 0.57 0.61 0.59 0.52 0.43 0.42 0.44 0.45 0.51 0.54 0.55 0.55 0.52 0.50 0.51 0.54 0.51 0.47 0.47 0.53 0.56 0.47 0.41 0.36 0.26
0.53 0.74 0.92 0.84 0.58 0.31 0.16 0.06 0.03 0.03 0.04 0.05 0.06 0.10 0.17 0.18 0.18 0.19 0.21 0.27 0.35 0.37 0.37 0.51 0.66 0.72 0.70 0.61 0.52 0.48 0.50 0.52 0.54 0.60 0.65 0.68 0.70 0.64 0.57 0.53 0.49 0.45 0.40 0.37 0.33 0.30 0.26 0.24 0.20
0.84 1.09 1.12 0.90 0.52 0.24 0.12 0.10 0.06 0.06 0.05 0.05 0.08 0.14 0.21 0.20 0.24 0.26 0.29 0.36 0.39 0.50 0.54 0.69 0.84 0.90 0.89 0.75 0.66 0.61 0.59 0.59 0.61 0.62 0.67 0.76 0.82 0.80 0.69 0.55 0.42 0.37 0.33 0.30 0.25 0.23 0.22 0.19 0.16
1.14 1.28 1.16 0.83 0.40 0.19 0.10 0.10 0.09 0.08 0.08 0.09 0.11 0.16 0.27 0.25 0.31 0.43 0.43 0.45 0.46 0.52 0.64 0.80 1.00 1.05 1.04 0.93 0.86 0.82 0.78 0.75 0.72 0.69 0.72 0.77 0.80 0.75 0.69 0.50 0.37 0.32 0.31 0.30 0.25 0.22 0.23 0.20 0.16
1.33 1.39 1.12 0.68 0.32 0.16 0.10 0.10 0.13 0.13 0.12 0.15 0.19 0.26 0.36 0.40 0.49 0.60 0.63 0.60 0.54 0.55 0.72 0.90 1.14 1.16 1.13 1.08 0.99 0.96 0.95 0.91 0.87 0.83 0.83 0.84 0.82 0.74 0.63 0.51 0.42 0.34 0.32 0.33 0.30 0.25 0.23 0.23 0.21
1.29 1.26 0.91 0.50 0.29 0.19 0.13 0.13 0.17 0.18 0.17 0.19 0.23 0.33 0.49 0.63 0.78 0.80 0.86 0.87 0.82 0.79 0.89 1.04 1.23 1.28 1.28 1.18 1.07 1.00 1.02 1.03 0.99 0.95 0.88 0.80 0.75 0.71 0.62 0.52 0.46 0.41 0.38 0.36 0.31 0.29 0.26 0.25 0.25
1.27 1.43 0.86 0.50 0.32 0.24 0.16 0.15 0.18 0.23 0.24 0.21 0.28 0.39 0.53 0.73 0.98 1.12 1.20 1.26 1.21 1.15 1.19 1.27 1.34 1.34 1.31 1.23 1.13 1.09 1.06 1.08 1.12 1.05 0.88 0.76 0.68 0.66 0.62 0.51 0.46 0.41 0.40 0.38 0.33 0.30 0.28 0.27 0.24
1.21 1.56 0.95 0.48 0.40 0.29 0.24 0.22 0.23 0.27 0.34 0.30 0.31 0.40 0.57 0.83 1.20 1.42 1.66 1.68 1.62 1.58 1.50 1.51 1.52 1.49 1.46 1.38 1.23 1.20 1.13 1.10 1.11 1.07 0.89 0.79 0.75 0.68 0.59 0.46 0.38 0.37 0.38 0.37 0.36 0.33 0.29 0.25 0.20
1.19 1.29 0.85 0.51 0.45 0.41 0.39 0.36 0.37 0.42 0.48 0.45 0.42 0.57 0.81 1.18 1.56 1.73 1.70 1.74 1.74 1.85 1.74 1.64 1.60 1.53 1.55 1.51 1.39 1.36 1.22 1.11 1.07 0.95 0.90 0.86 0.79 0.68 0.56 0.49 0.42 0.38 0.35 0.37 0.40 0.39 0.35 0.26 0.19
0.87 0.78 0.66 0.59 0.51 0.52 0.52 0.49 0.44 0.52 0.52 0.49 0.43 0.58 0.92 1.41 1.80 2.06 2.13 1.93 1.91 2.00 1.99 1.90 1.81 1.69 1.57 1.62 1.49 1.40 1.33 1.20 1.12 0.98 0.95 0.92 0.90 0.80 0.73 0.64 0.62 0.55 0.44 0.44 0.42 0.44 0.34 0.23 0.17
0.66 0.53 0.60 0.69 0.60 0.58 0.58 0.59 0.53 0.56 0.55 0.51 0.52 0.62 0.92 1.35 1.80 2.08 2.37 2.26 2.25 2.21 2.15 2.13 2.03 1.97 1.76 1.65 1.58 1.52 1.41 1.29 1.15 1.00 0.95 0.96 0.89 0.81 0.72 0.61 0.60 0.61 0.48 0.46 0.44 0.38 0.30 0.25 0.20
0.56 0.55 0.59 0.68 0.67 0.60 0.59 0.60 0.61 0.60 0.61 0.63 0.69 0.83 1.01 1.35 1.83 2.17 2.57 2.67 2.59 2.49 2.44 2.36 2.18 2.11 2.02 1.78 1.61 1.59 1.56 1.45 1.30 1.21 1.07 0.98 0.88 0.73 0.66 0.60 0.60 0.59 0.52 0.45 0.44 0.38 0.34 0.30 0.26
0.47 0.56 0.63 0.70 0.72 0.63 0.63 0.58 0.62 0.63 0.69 0.78 0.79 0.88 1.05 1.38 1.78 2.18 2.59 2.80 2.62 2.67 2.74 2.68 2.47 2.24 2.16 1.96 1.67 1.58 1.63 1.60 1.56 1.40 1.20 1.15 1.03 0.88 0.75 0.67 0.64 0.60 0.56 0.52 0.48 0.42 0.41 0.38 0.34
0.52 0.65 0.71 0.71 0.70 0.67 0.70 0.73 0.62 0.61 0.76 0.84 0.82 0.90 1.01 1.28 1.70 2.06 2.34 2.55 2.59 2.60 2.82 2.88 2.74 2.56 2.33 2.18 1.95 1.69 1.73 1.75 1.69 1.53 1.36 1.30 1.24 1.11 0.96 0.82 0.71 0.61 0.59 0.60 0.61 0.59 0.54 0.47 0.41
0.82 0.89 0.84 0.65 0.66 0.65 0.79 0.82 0.60 0.60 0.72 0.81 0.85 0.90 0.98 1.11 1.53 1.95 2.18 2.41 2.62 2.60 2.68 2.90 2.90 2.82 2.66 2.45 2.22 1.91 1.78 1.81 1.75 1.60 1.45 1.35 1.30 1.24 1.15 0.99 0.85 0.75 0.72 0.71 0.69 0.67 0.63 0.55 0.48
1.13 0.93 0.64 0.57 0.60 0.65 0.71 0.76 0.61 0.56 0.67 0.75 0.83 0.86 0.92 1.00 1.27 1.74 2.06 2.23 2.52 2.57 2.62 2.79 2.89 2.92 2.97 2.88 2.69 2.33 2.00 1.95 1.91 1.77 1.54 1.43 1.37 1.31 1.24 1.13 1.00 0.95 0.88 0.78 0.72 0.70 0.65 0.63 0.58
0.79 0.59 0.47 0.53 0.56 0.55 0.58 0.67 0.66 0.64 0.69 0.72 0.81 0.89 0.91 0.95 1.06 1.40 1.88 2.07 2.53 2.76 2.83 2.83 2.95 3.13 3.28 3.37 3.18 2.92 2.46 2.16 2.01 1.87 1.69 1.54 1.45 1.40 1.34 1.28 1.19 1.11 1.09 1.00 0.87 0.79 0.74 0.69 0.65
0.59 0.52 0.45 0.45 0.44 0.53 0.55 0.63 0.70 0.69 0.66 0.71 0.81 0.88 0.90 0.91 1.01 1.29 1.71 1.98 2.39 2.82 2.97 3.00 2.93 3.10 3.40 3.35 3.12 2.84 2.54 2.32 2.10 1.96 1.84 1.70 1.58 1.48 1.39 1.28 1.29 1.28 1.22 1.17 1.10 1.04 0.98 0.91 0.88
0.73 0.66 0.53 0.49 0.46 0.56 0.57 0.60 0.60 0.63 0.62 0.64 0.72 0.79 0.81 0.78 0.91 1.19 1.48 1.79 2.02 2.59 2.91 2.94 3.01 3.14 3.32 3.27 3.16 3.06 2.91 2.67 2.44 2.26 1.98 1.79 1.66 1.54 1.48 1.37 1.26 1.29 1.31 1.23 1.20 1.21 1.21 1.16 1.13
0.80 0.69 0.54 0.55 0.62 0.60 0.57 0.62 0.52 0.51 0.52 0.54 0.66 0.73 0.73 0.73 0.87 1.07 1.26 1.52 1.68 2.06 2.51 2.70 2.74 2.94 3.11 3.31 3.60 3.59 3.41 3.01 2.54 2.24 2.08 1.92 1.88 1.77 1.61 1.58 1.49 1.35 1.36 1.30 1.20 1.13 1.14 1.18 1.20
0.81 0.54 0.54 0.57 0.73 0.75 0.59 0.76 0.52 0.45 0.49 0.50 0.62 0.70 0.70 0.70 0.79 0.97 1.11 1.23 1.42 1.66 2.05 2.43 2.62 2.73 2.79 2.92 3.24 3.39 3.25 2.85 2.46 2.21 2.17 2.18 2.09 2.06 1.96 1.82 1.75 1.61 1.50 1.44 1.39 1.34 1.25 1.24 1.24
0.74 0.51 0.61 0.68 0.79 0.79 0.54 0.66 0.54 0.44 0.51 0.53 0.60 0.68 0.71 0.74 0.83 0.95 1.02 1.04 1.16 1.39 1.77 2.11 2.37 2.58 2.61 2.57 2.73 3.00 3.14 3.04 2.84 2.57 2.39 2.29 2.21 2.10 2.05 1.98 1.91 1.78 1.66 1.62 1.62 1.56 1.49 1.45 1.37
0.80 0.83 0.96 1.05 1.30 1.27 0.52 0.53 0.50 0.48 0.57 0.56 0.57 0.68 0.75 0.82 0.88 0.93 0.97 0.99 1.03 1.18 1.43 1.73 2.01 2.33 2.51 2.47 2.55 2.66 2.74 2.88 2.84 2.58 2.49 2.38 2.36 2.25 2.09 1.98 1.95 1.90 1.83 1.76 1.75 1.76 1.68 1.59 1.53
1.26 1.71 2.15 2.10 1.86 1.05 0.31 0.37 0.52 0.46 0.50 0.53 0.57 0.65 0.71 0.73 0.77 0.79 0.80 0.85 0.97 1.08 1.21 1.43 1.56 1.84 2.14 2.27 2.33 2.39 2.46 2.55 2.65 2.60 2.50 2.44 2.30 2.20 2.14 2.03 1.99 1.98 1.87 1.83 1.81 1.78 1.71 1.66 1.61
1.28 1.52 1.67 1.45 0.95 0.48 0.26 0.41 0.50 0.41 0.42 0.47 0.51 0.59 0.70 0.76 0.78 0.79 0.76 0.82 0.97 1.03 1.11 1.26 1.38 1.51 1.76 1.98 2.02 2.07 2.22 2.29 2.28 2.36 2.32 2.28 2.21 2.14 2.16 2.15 2.02 1.98 1.94 1.84 1.78 1.74 1.65 1.62 1.60
1.22 1.14 0.91 1.15 0.83 0.57 0.39 0.35 0.38 0.35 0.38 0.43 0.44 0.50 0.62 0.69 0.70 0.77 0.80 0.85 0.92 0.97 1.03 1.14 1.24 1.28 1.40 1.65 1.78 1.86 1.91 1.93 1.87 1.88 1.90 1.94 1.97 1.99 2.00 2.03 1.94 1.85 1.82 1.78 1.73 1.68 1.59 1.54 1.49
1.08 0.95 1.05 1.42 1.20 0.83 0.45 0.35 0.48 0.45 0.44 0.44 0.44 0.47 0.57 0.65 0.71 0.77 0.82 0.80 0.81 0.86 0.93 1.04 1.08 1.09 1.14 1.28 1.41 1.58 1.66 1.65 1.67 1.65 1.60 1.59 1.58 1.63 1.70 1.75 1.75 1.69 1.65 1.63 1.60 1.54 1.51 1.50 1.41
0.89 1.03 1.14 1.16 0.95 0.97 0.65 0.48 0.48 0.48 0.48 0.48 0.53 0.54 0.59 0.64 0.74 0.81 0.87 0.84 0.82 0.85 0.90 0.96 0.95 0.97 1.01 1.08 1.14 1.23 1.36 1.44 1.47 1.45 1.34 1.35 1.32 1.30 1.35 1.35 1.38 1.42 1.43 1.44 1.42 1.39 1.39 1.39 1.35
0.70 0.76 0.93 1.26 0.97 0.75 0.70 0.50 0.36 0.40 0.44 0.48 0.57 0.58 0.58 0.60 0.67 0.75 0.84 0.83 0.84 0.88 0.91 0.94 0.91 0.92 0.93 0.99 1.01 1.04 1.12 1.26 1.31 1.33 1.25 1.17 1.18 1.12 1.13 1.14 1.12 1.11 1.13 1.18 1.20 1.18 1.19 1.23 1.22

GEFSSGP_prec_meanprecacc_252.txt.gz
Total_Precipitation_Accumulation
0.28 0.33 0.42 0.55 0.49 0.35 0.15 0.05 0.01 0.02 0.04 0.04 0.05 0.05 0.06 0.09 0.13 0.18 0.15 0.16 0.16 0.18 0.25 0.42 0.59 0.59 0.53 0.47 0.42 0.39 0.38 0.40 0.44 0.47 0.48 0.45 0.43 0.44 0.51 0.53 0.50 0.50 0.54 0.63 0.71 0.70 0.66 0.58 0.40
0.33 0.48 0.67 0.76 0.52 0.32 0.16 0.05 0.02 0.02 0.04 0.04 0.05 0.06 0.09 0.12 0.14 0.15 0.16 0.23 0.26 0.25 0.30 0.42 0.59 0.63 0.61 0.53 0.44 0.43 0.45 0.46 0.52 0.56 0.56 0.58 0.56 0.54 0.53 0.56 0.52 0.48 0.49 0.55 0.57 0.48 0.42 0.37 0.26
0.53 0.74 0.92 0.84 0.58 0.31 0.16 0.06 0.03 0.03 0.04 0.05 0.06 0.10 0.17 0.19 0.18 0.20 0.22 0.28 0.36 0.38 0.39 0.53 0.68 0.73 0.72 0.63 0.53 0.49 0.51 0.53 0.56 0.62 0.67 0.70 0.72 0.66 0.58 0.54 0.50 0.46 0.41 0.38 0.34 0.32 0.27 0.24 0.20
0.84 1.09 1.12 0.90 0.52 0.24 0.12 0.10 0.06 0.06 0.05 0.05 0.08 0.14 0.21 0.20 0.24 0.26 0.31 0.37 0.40 0.51 0.56 0.71 0.87 0.92 0.90 0.77 0.67 0.62 0.61 0.61 0.63 0.64 0.69 0.77 0.84 0.81 0.70 0.56 0.43 0.38 0.34 0.30 0.26 0.24 0.23 0.19 0.16
1.14 1.28 1.16 0.83 0.40 0.19 0.10 0.10 0.09 0.08 0.08 0.09 0.11 0.16 0.27 0.25 0.32 0.44 0.45 0.47 0.46 0.53 0.65 0.82 1.03 1.08 1.06 0.95 0.87 0.84 0.79 0.76 0.74 0.71 0.75 0.80 0.81 0.76 0.69 0.51 0.38 0.32 0.32 0.31 0.26 0.23 0.23 0.21 0.17
1.34 1.39 1.12 0.68 0.32 0.16 0.10 0.10 0.13 0.13 0.12 0.15 0.19 0.26 0.37 0.41 0.50 0.61 0.64 0.61 0.55 0.56 0.73 0.92 1.17 1.19 1.15 1.09 1.00 0.97 0.97 0.93 0.89 0.85 0.85 0.87 0.84 0.75 0.64 0.52 0.43 0.35 0.33 0.34 0.30 0.26 0.24 0.24 0.21
1.30 1.26 0.91 0.50 0.29 0.19 0.13 0.13 0.17 0.18 0.17 0.19 0.23 0.33 0.49 0.63 0.78 0.81 0.86 0.88 0.83 0.80 0.90 1.05 1.25 1.32 1.30 1.20 1.08 1.02 1.03 1.05 1.03 0.97 0.90 0.82 0.76 0.73 0.63 0.53 0.47 0.42 0.38 0.37 0.32 0.30 0.27 0.27 0.26
1.27 1.43 0.86 0.50 0.32 0.24 0.16 0.15 0.18 0.23 0.24 0.21 0.28 0.39 0.53 0.74 0.99 1.12 1.20 1.27 1.21 1.15 1.20 1.29 1.37 1.37 1.34 1.26 1.15 1.10 1.08 1.10 1.15 1.08 0.89 0.77 0.69 0.67 0.63 0.51 0.46 0.42 0.41 0.39 0.34 0.30 0.28 0.28 0.25
1.21 1.57 0.95 0.48 0.40 0.29 0.24 0.22 0.23 0.27 0.34 0.30 0.31 0.40 0.57 0.83 1.21 1.43 1.66 1.68 1.63 1.59 1.51 1.54 1.55 1.53 1.49 1.41 1.26 1.22 1.14 1.11 1.13 1.09 0.91 0.80 0.76 0.68 0.60 0.47 0.39 0.38 0.38 0.37 0.37 0.34 0.29 0.25 0.21
1.20 1.30 0.86 0.51 0.45 0.41 0.39 0.36 0.37 0.42 0.48 0.45 0.42 0.57 0.81 1.18 1.56 1.73 1.71 1.75 1.74 1.86 1.75 1.65 1.63 1.57 1.58 1.54 1.43 1.39 1.24 1.12 1.08 0.97 0.92 0.87 0.79 0.69 0.56 0.50 0.43 0.39 0.36 0.37 0.40 0.40 0.35 0.27 0.19
0.87 0.78 0.66 0.59 0.51 0.52 0.52 0.49 0.44 0.52 0.52 0.49 0.43 0.58 0.92 1.41 1.80 2.07 2.14 1.94 1.91 2.00 1.99 1.91 1.83 1.72 1.61 1.65 1.52 1.44 1.35 1.21 1.13 1.00 0.97 0.94 0.91 0.81 0.73 0.64 0.62 0.56 0.45 0.44 0.42 0.44 0.35 0.24 0.18
0.66 0.53 0.60 0.69 0.60 0.58 0.59 0.59 0.53 0.56 0.55 0.51 0.52 0.62 0.92 1.35 1.80 2.09 2.38 2.26 2.25 2.22 2.15 2.14 2.05 1.98 1.80 1.69 1.62 1.55 1.43 1.31 1.17 1.02 0.97 0.97 0.90 0.81 0.73 0.61 0.60 0.61 0.49 0.46 0.44 0.38 0.31 0.26 0.20
0.56 0.55 0.59 0.69 0.68 0.60 0.59 0.60 0.61 0.60 0.61 0.63 0.69 0.83 1.02 1.36 1.84 2.19 2.58 2.68 2.59 2.50 2.45 2.37 2.20 2.13 2.04 1.83 1.66 1.62 1.58 1.47 1.32 1.23 1.09 0.99 0.89 0.74 0.67 0.61 0.61 0.59 0.52 0.46 0.44 0.38 0.34 0.32 0.27
0.48 0.56 0.63 0.70 0.72 0.63 0.63 0.58 0.62 0.63 0.69 0.78 0.79 0.88 1.06 1.39 1.79 2.19 2.59 2.80 2.62 2.67 2.75 2.68 2.48 2.26 2.17 1.98 1.70 1.60 1.67 1.63 1.57 1.42 1.22 1.17 1.05 0.89 0.75 0.68 0.65 0.61 0.56 0.52 0.48 0.42 0.41 0.38 0.35
0.53 0.66 0.72 0.71 0.70 0.67 0.70 0.73 0.62 0.61 0.76 0.84 0.82 0.90 1.01 1.28 1.70 2.06 2.34 2.55 2.59 2.60 2.82 2.88 2.75 2.57 2.35 2.19 1.96 1.70 1.75 1.78 1.72 1.55 1.38 1.32 1.27 1.14 0.97 0.83 0.72 0.62 0.60 0.60 0.61 0.60 0.54 0.47 0.42
0.84 0.91 0.84 0.65 0.66 0.65 0.79 0.82 0.60 0.60 0.72 0.81 0.85 0.90 0.98 1.11 1.53 1.95 2.18 2.41 2.62 2.60 2.68 2.90 2.90 2.83 2.67 2.47 2.23 1.91 1.79 1.82 1.76 1.61 1.46 1.37 1.33 1.27 1.18 1.01 0.86 0.76 0.73 0.72 0.69 0.68 0.64 0.55 0.48
1.17 0.96 0.65 0.57 0.60 0.65 0.71 0.76 0.61 0.56 0.67 0.75 0.83 0.87 0.92 1.00 1.27 1.74 2.06 2.23 2.52 2.57 2.63 2.79 2.89 2.92 2.98 2.89 2.70 2.34 2.01 1.96 1.91 1.77 1.55 1.44 1.39 1.33 1.27 1.15 1.01 0.97 0.90 0.80 0.74 0.71 0.66 0.63 0.58
0.84 0.62 0.49 0.54 0.56 0.55 0.58 0.67 0.66 0.64 0.69 0.72 0.81 0.89 0.91 0.95 1.06 1.40 1.88 2.07 2.53 2.76 2.83 2.83 2.95 3.13 3.29 3.38 3.19 2.93 2.47 2.17 2.03 1.88 1.70 1.55 1.46 1.41 1.36 1.30 1.21 1.13 1.11 1.02 0.89 0.80 0.75 0.70 0.65
0.62 0.54 0.47 0.46 0.45 0.53 0.55 0.63 0.70 0.69 0.66 0.71 0.81 0.88 0.91 0.91 1.01 1.29 1.71 1.98 2.39 2.82 2.97 3.00 2.94 3.11 3.41 3.35 3.13 2.85 2.56 2.33 2.11 1.97 1.84 1.71 1.59 1.49 1.40 1.29 1.32 1.31 1.24 1.18 1.11 1.05 0.99 0.91 0.88
0.77 0.70 0.55 0.50 0.47 0.57 0.57 0.61 0.61 0.63 0.62 0.64 0.72 0.79 0.81 0.79 0.91 1.20 1.48 1.79 2.02 2.59 2.91 2.94 3.01 3.14 3.33 3.27 3.16 3.07 2.92 2.69 2.45 2.28 1.99 1.80 1.67 1.55 1.49 1.37 1.27 1.32 1.35 1.27 1.22 1.22 1.21 1.17 1.14
0.84 0.72 0.57 0.57 0.64 0.61 0.58 0.63 0.53 0.52 0.53 0.54 0.66 0.73 0.73 0.73 0.87 1.07 1.26 1.52 1.68 2.06 2.51 2.70 2.74 2.94 3.11 3.32 3.61 3.60 3.42 3.03 2.55 2.25 2.09 1.93 1.89 1.79 1.63 1.59 1.50 1.36 1.38 1.33 1.24 1.16 1.16 1.19 1.21
0.85 0.56 0.56 0.60 0.76 0.77 0.60 0.78 0.53 0.46 0.49 0.51 0.62 0.70 0.71 0.70 0.80 0.97 1.11 1.23 1.42 1.66 2.05 2.43 2.62 2.73 2.79 2.92 3.24 3.39 3.25 2.86 2.47 2.21 2.18 2.19 2.10 2.07 1.98 1.83 1.75 1.61 1.51 1.45 1.41 1.36 1.27 1.25 1.25
0.77 0.52 0.62 0.71 0.82 0.83 0.56 0.68 0.55 0.44 0.51 0.53 0.60 0.68 0.71 0.74 0.84 0.95 1.02 1.04 1.16 1.40 1.77 2.11 2.37 2.58 2.61 2.57 2.73 3.00 3.15 3.04 2.85 2.58 2.40 2.30 2.22 2.11 2.07 2.00 1.93 1.79 1.67 1.62 1.63 1.57 1.51 1.46 1.38
0.83 0.85 0.97 1.08 1.36 1.34 0.54 0.54 0.52 0.49 0.58 0.57 0.57 0.68 0.75 0.82 0.88 0.93 0.97 0.99 1.04 1.18 1.44 1.73 2.01 2.33 2.51 2.47 2.55 2.66 2.74 2.90 2.85 2.59 2.50 2.39 2.37 2.25 2.10 2.00 1.96 1.91 1.84 1.77 1.76 1.77 1.69 1.59 1.53
1.28 1.74 2.21 2.18 1.95 1.11 0.32 0.39 0.55 0.47 0.51 0.54 0.57 0.65 0.71 0.73 0.77 0.79 0.80 0.85 0.97 1.08 1.21 1.44 1.57 1.84 2.14 2.27 2.33 2.39 2.47 2.56 2.67 2.62 2.51 2.46 2.32 2.21 2.15 2.04 2.00 1.99 1.88 1.84 1.82 1.79 1.72 1.67 1.61
1.31 1.55 1.72 1.51 0.98 0.50 0.28 0.44 0.54 0.43 0.43 0.47 0.52 0.59 0.70 0.76 0.78 0.79 0.77 0.82 0.97 1.03 1.11 1.26 1.38 1.51 1.76 1.98 2.02 2.07 2.22 2.30 2.30 2.38 2.34 2.30 2.23 2.15 2.17 2.15 2.03 1.99 1.95 1.85 1.79 1.75 1.66 1.63 1.61
1.26 1.18 0.93 1.19 0.86 0.60 0.43 0.39 0.41 0.37 0.40 0.43 0.45 0.51 0.64 0.72 0.73 0.79 0.82 0.86 0.92 0.97 1.03 1.14 1.25 1.28 1.41 1.66 1.79 1.86 1.92 1.94 1.88 1.91 1.93 1.96 2.00 2.01 2.02 2.04 1.94 1.86 1.83 1.78 1.74 1.69 1.60 1.54 1.50
1.12 0.99 1.07 1.45 1.24 0.87 0.48 0.38 0.53 0.48 0.46 0.45 0.46 0.49 0.58 0.67 0.73 0.79 0.83 0.81 0.82 0.87 0.94 1.05 1.09 1.10 1.15 1.29 1.42 1.59 1.67 1.66 1.68 1.67 1.63 1.62 1.61 1.65 1.72 1.77 1.76 1.69 1.66 1.63 1.61 1.55 1.52 1.50 1.41
0.93 1.08 1.19 1.19 0.98 1.00 0.69 0.54 0.53 0.51 0.50 0.51 0.55 0.56 0.61 0.66 0.76 0.83 0.88 0.85 0.83 0.87 0.92 0.99 0.98 0.99 1.02 1.09 1.16 1.25 1.38 1.45 1.49 1.47 1.37 1.37 1.34 1.33 1.37 1.37 1.39 1.43 1.44 1.45 1.43 1.40 1.40 1.40 1.36
0.74 0.80 0.98 1.32 1.01 0.78 0.74 0.58 0.41 0.43 0.46 0.50 0.59 0.59 0.59 0.62 0.69 0.77 0.85 0.84 0.86 0.90 0.94 0.98 0.95 0.96 0.96 1.01 1.02 1.06 1.15 1.28 1.33 1.36 1.28 1.19 1.21 1.16 1.17 1.17 1.14 1.13 1.15 1.19 1.21 1.19 1.20 1.24 1.23

GEFSSGP_prec_meanprecacc_258.txt.gz
Total_Precipitation_Accumulation
0.28 0.33 0.42 0.55 0.49 0.35 0.15 0.05 0.01 0.02 0.04 0.04 0.05 0.05 0.06 0.09 0.13 0.18 0.15 0.17 0.16 0.19 0.27 0.45 0.61 0.61 0.55 0.49 0.43 0.39 0.39 0.41 0.45 0.48 0.48 0.46 0.45 0.47 0.53 0.55 0.52 0.52 0.55 0.64 0.72 0.71 0.67 0.59 0.40
0.33 0.48 0.68 0.76 0.52 0.32 0.16 0.05 0.02 0.02 0.04 0.04 0.05 0.06 0.09 0.13 0.15 0.15 0.17 0.23 0.26 0.26 0.31 0.45 0.62 0.66 0.63 0.55 0.45 0.44 0.46 0.47 0.54 0.57 0.57 0.59 0.58 0.57 0.55 0.57 0.54 0.51 0.50 0.56 0.58 0.49 0.43 0.38 0.27
0.53 0.74 0.93 0.84 0.58 0.31 0.16 0.06 0.03 0.03 0.04 0.05 0.06 0.10 0.17 0.19 0.19 0.20 0.22 0.28 0.36 0.39 0.40 0.55 0.72 0.78 0.75 0.65 0.56 0.51 0.52 0.55 0.57 0.63 0.68 0.71 0.74 0.68 0.60 0.55 0.52 0.48 0.42 0.38 0.35 0.32 0.28 0.25 0.22
0.84 1.10 1.13 0.90 0.52 0.24 0.12 0.10 0.06 0.06 0.05 0.05 0.08 0.14 0.21 0.21 0.24 0.27 0.31 0.38 0.40 0.52 0.57 0.73 0.90 0.97 0.96 0.81 0.70 0.65 0.63 0.63 0.65 0.66 0.71 0.78 0.85 0.83 0.72 0.58 0.44 0.39 0.35 0.31 0.26 0.24 0.23 0.20 0.17
1.15 1.29 1.17 0.83 0.40 0.19 0.10 0.10 0.09 0.08 0.08 0.09 0.11 0.16 0.27 0.25 0.32 0.45 0.45 0.47 0.47 0.53 0.66 0.84 1.07 1.13 1.13 1.00 0.90 0.87 0.81 0.78 0.76 0.74 0.77 0.82 0.83 0.78 0.71 0.52 0.39 0.33 0.32 0.31 0.27 0.24 0.24 0.22 0.18
1.34 1.40 1.12 0.68 0.32 0.16 0.10 0.10 0.13 0.13 0.12 0.15 0.19 0.26 0.37 0.41 0.50 0.61 0.65 0.62 0.56 0.58 0.74 0.94 1.20 1.23 1.21 1.15 1.04 1.01 1.01 0.97 0.92 0.88 0.88 0.89 0.86 0.77 0.65 0.53 0.44 0.36 0.34 0.34 0.31 0.27 0.25 0.25 0.23
1.30 1.26 0.91 0.50 0.29 0.19 0.13 0.13 0.17 0.18 0.17 0.19 0.23 0.33 0.49 0.64 0.79 0.82 0.87 0.89 0.84 0.82 0.92 1.07 1.27 1.36 1.37 1.27 1.13 1.06 1.08 1.09 1.06 0.99 0.92 0.84 0.79 0.75 0.65 0.54 0.48 0.43 0.39 0.37 0.33 0.31 0.28 0.27 0.26
1.28 1.43 0.86 0.50 0.32 0.24 0.16 0.15 0.18 0.23 0.24 0.21 0.28 0.39 0.54 0.74 0.99 1.13 1.22 1.28 1.23 1.17 1.22 1.31 1.38 1.40 1.39 1.31 1.20 1.15 1.12 1.14 1.18 1.11 0.91 0.78 0.71 0.69 0.65 0.53 0.48 0.44 0.41 0.39 0.34 0.32 0.29 0.28 0.25
1.22 1.58 0.96 0.48 0.40 0.29 0.24 0.22 0.23 0.27 0.34 0.30 0.31 0.40 0.57 0.83 1.21 1.44 1.68 1.70 1.64 1.61 1.52 1.55 1.57 1.55 1.53 1.46 1.32 1.26 1.18 1.15 1.16 1.12 0.93 0.81 0.77 0.69 0.61 0.48 0.40 0.40 0.39 0.38 0.37 0.35 0.30 0.26 0.21
1.21 1.31 0.86 0.51 0.45 0.41 0.39 0.36 0.37 0.42 0.48 0.45 0.42 0.57 0.81 1.18 1.57 1.74 1.72 1.76 1.75 1.87 1.76 1.67 1.64 1.58 1.61 1.58 1.48 1.44 1.28 1.16 1.11 0.98 0.94 0.88 0.80 0.69 0.57 0.50 0.44 0.41 0.38 0.38 0.41 0.41 0.36 0.27 0.19
0.88 0.79 0.66 0.59 0.51 0.52 0.52 0.49 0.44 0.52 0.52 0.49 0.43 0.59 0.93 1.41 1.80 2.07 2.14 1.94 1.92 2.01 2.00 1.92 1.84 1.73 1.63 1.68 1.57 1.49 1.40 1.26 1.17 1.02 0.98 0.95 0.92 0.82 0.74 0.64 0.63 0.57 0.46 0.45 0.43 0.45 0.35 0.24 0.18
0.67 0.54 0.61 0.69 0.60 0.58 0.59 0.59 0.53 0.56 0.55 0.51 0.52 0.62 0.92 1.35 1.80 2.09 2.38 2.27 2.26 2.22 2.16 2.15 2.06 2.00 1.81 1.72 1.66 1.61 1.49 1.36 1.21 1.05 0.99 0.98 0.91 0.82 0.73 0.62 0.60 0.62 0.49 0.46 0.44 0.39 0.31 0.26 0.20
0.57 0.56 0.59 0.69 0.68 0.60 0.60 0.60 0.61 0.60 0.61 0.63 0.69 0.83 1.02 1.36 1.84 2.19 2.59 2.68 2.60 2.50 2.46 2.38 2.21 2.15 2.06 1.85 1.70 1.67 1.64 1.54 1.38 1.28 1.12 1.01 0.90 0.75 0.67 0.61 0.61 0.60 0.52 0.46 0.45 0.38 0.35 0.32 0.28
0.49 0.57 0.64 0.71 0.74 0.64 0.64 0.59 0.62 0.63 0.69 0.78 0.79 0.88 1.06 1.39 1.79 2.19 2.59 2.81 2.62 2.68 2.75 2.69 2.49 2.27 2.19 1.99 1.73 1.65 1.71 1.69 1.66 1.48 1.26 1.21 1.08 0.91 0.77 0.69 0.66 0.61 0.56 0.52 0.48 0.42 0.41 0.39 0.35
0.54 0.68 0.73 0.73 0.72 0.69 0.71 0.74 0.63 0.61 0.76 0.84 0.82 0.91 1.01 1.28 1.70 2.06 2.34 2.56 2.59 2.60 2.82 2.88 2.76 2.59 2.36 2.21 1.98 1.74 1.80 1.83 1.80 1.66 1.46 1.38 1.32 1.18 1.01 0.86 0.74 0.63 0.60 0.60 0.62 0.60 0.55 0.48 0.43
0.86 0.94 0.88 0.67 0.68 0.69 0.82 0.83 0.60 0.60 0.72 0.81 0.85 0.91 0.98 1.11 1.53 1.95 2.18 2.41 2.62 2.61 2.69 2.90 2.90 2.84 2.69 2.48 2.25 1.93 1.82 1.85 1.80 1.68 1.57 1.45 1.39 1.32 1.22 1.04 0.89 0.79 0.75 0.73 0.71 0.69 0.65 0.56 0.49
1.20 1.00 0.69 0.59 0.62 0.69 0.75 0.77 0.61 0.56 0.68 0.76 0.84 0.87 0.93 1.00 1.27 1.74 2.06 2.23 2.52 2.58 2.63 2.80 2.90 2.93 2.99 2.90 2.71 2.35 2.02 1.98 1.93 1.80 1.61 1.51 1.44 1.38 1.32 1.19 1.05 1.01 0.94 0.82 0.76 0.73 0.68 0.65 0.60
0.86 0.65 0.51 0.56 0.58 0.59 0.63 0.68 0.67 0.65 0.70 0.72 0.82 0.89 0.92 0.95 1.06 1.41 1.88 2.08 2.53 2.77 2.84 2.84 2.95 3.14 3.30 3.39 3.20 2.94 2.48 2.18 2.03 1.89 1.73 1.60 1.52 1.45 1.39 1.34 1.24 1.16 1.14 1.05 0.93 0.83 0.78 0.73 0.68
0.64 0.56 0.49 0.48 0.47 0.56 0.59 0.66 0.72 0.70 0.67 0.72 0.82 0.89 0.91 0.92 1.01 1.30 1.71 1.98 2.39 2.82 2.98 3.01 2.94 3.11 3.41 3.36 3.13 2.86 2.57 2.34 2.12 1.98 1.86 1.74 1.64 1.54 1.44 1.32 1.35 1.34 1.26 1.20 1.13 1.09 1.02 0.95 0.91
0.79 0.72 0.57 0.52 0.49 0.61 0.61 0.64 0.63 0.65 0.63 0.65 0.72 0.79 0.82 0.79 0.92 1.20 1.49 1.79 2.02 2.60 2.92 2.95 3.02 3.14 3.33 3.27 3.17 3.08 2.93 2.70 2.45 2.28 2.00 1.82 1.70 1.60 1.54 1.41 1.30 1.35 1.38 1.30 1.25 1.25 1.25 1.20 1.16
0.86 0.74 0.58 0.59 0.67 0.64 0.62 0.67 0.57 0.54 0.55 0.55 0.67 0.73 0.73 0.73 0.87 1.07 1.26 1.53 1.68 2.06 2.51 2.71 2.75 2.94 3.11 3.32 3.61 3.60 3.42 3.03 2.56 2.26 2.10 1.95 1.91 1.81 1.66 1.63 1.53 1.39 1.41 1.37 1.28 1.19 1.19 1.21 1.22
0.87 0.58 0.58 0.61 0.80 0.83 0.65 0.83 0.57 0.50 0.52 0.52 0.63 0.70 0.71 0.70 0.80 0.97 1.12 1.23 1.43 1.67 2.06 2.43 2.62 2.74 2.80 2.93 3.25 3.39 3.26 2.87 2.48 2.23 2.19 2.20 2.12 2.09 2.00 1.86 1.78 1.64 1.53 1.47 1.45 1.40 1.31 1.28 1.28
0.79 0.54 0.64 0.72 0.86 0.89 0.60 0.72 0.60 0.49 0.55 0.56 0.62 0.69 0.72 0.74 0.84 0.96 1.02 1.04 1.16 1.40 1.77 2.11 2.38 2.59 2.62 2.57 2.73 3.00 3.15 3.05 2.85 2.59 2.42 2.32 2.24 2.13 2.09 2.02 1.95 1.81 1.69 1.64 1.64 1.59 1.54 1.50 1.42
0.84 0.87 1.00 1.11 1.41 1.41 0.59 0.58 0.57 0.54 0.63 0.60 0.59 0.69 0.76 0.83 0.90 0.94 0.98 0.99 1.04 1.19 1.44 1.74 2.01 2.34 2.51 2.47 2.55 2.66 2.75 2.90 2.86 2.59 2.51 2.41 2.39 2.28 2.12 2.02 1.98 1.93 1.85 1.78 1.77 1.78 1.71 1.61 1.55
1.32 1.79 2.29 2.27 2.03 1.16 0.35 0.42 0.60 0.52 0.55 0.57 0.59 0.67 0.72 0.75 0.79 0.81 0.82 0.87 0.98 1.10 1.23 1.45 1.57 1.84 2.14 2.28 2.33 2.39 2.47 2.56 2.68 2.62 2.52 2.47 2.33 2.24 2.17 2.06 2.02 2.00 1.90 1.85 1.84 1.80 1.73 1.68 1.62
1.35 1.60 1.78 1.56 1.02 0.53 0.30 0.48 0.60 0.47 0.47 0.50 0.54 0.61 0.72 0.78 0.81 0.82 0.79 0.85 0.99 1.05 1.13 1.27 1.38 1.51 1.77 1.98 2.03 2.07 2.22 2.30 2.31 2.38 2.34 2.30 2.24 2.16 2.18 2.17 2.05 2.01 1.97 1.86 1.81 1.76 1.67 1.64 1.62
1.29 1.21 0.97 1.23 0.89 0.63 0.47 0.43 0.44 0.39 0.42 0.46 0.47 0.53 0.66 0.74 0.77 0.82 0.84 0.88 0.94 0.99 1.05 1.15 1.25 1.29 1.41 1.66 1.79 1.87 1.92 1.94 1.89 1.91 1.94 1.97 2.00 2.02 2.03 2.06 1.96 1.88 1.85 1.81 1.76 1.71 1.61 1.56 1.51
1.15 1.02 1.11 1.51 1.29 0.91 0.52 0.42 0.56 0.51 0.48 0.48 0.49 0.51 0.61 0.70 0.76 0.82 0.86 0.83 0.84 0.87 0.95 1.06 1.10 1.10 1.15 1.30 1.43 1.60 1.68 1.67 1.69 1.68 1.64 1.62 1.61 1.66 1.73 1.78 1.77 1.72 1.68 1.66 1.63 1.57 1.54 1.52 1.43
0.97 1.12 1.23 1.22 1.01 1.03 0.72 0.59 0.58 0.55 0.53 0.53 0.58 0.59 0.63 0.68 0.78 0.86 0.90 0.86 0.84 0.88 0.93 0.99 0.98 1.00 1.03 1.10 1.17 1.26 1.39 1.47 1.50 1.48 1.38 1.38 1.35 1.34 1.38 1.39 1.41 1.45 1.46 1.47 1.45 1.42 1.42 1.42 1.37
0.77 0.85 1.03 1.36 1.04 0.81 0.78 0.62 0.46 0.47 0.49 0.52 0.61 0.61 0.61 0.63 0.70 0.78 0.87 0.86 0.88 0.92 0.96 1.00 0.97 0.97 0.97 1.02 1.03 1.06 1.15 1.29 1.34 1.37 1.29 1.20 1.22 1.17 1.18 1.18 1.16 1.15 1.17 1.20 1.22 1.20 1.22 1.25 1.24

GEFSSGP_prec_meanprecacc_264.txt.gz
Total_Precipitation_Accumulation
0.28 0.33 0.43 0.56 0.50 0.35 0.16 0.05 0.01 0.02 0.04 0.04 0.05 0.05 0.06 0.09 0.13 0.18 0.15 0.17 0.16 0.19 0.27 0.46 0.63 0.63 0.58 0.52 0.45 0.40 0.40 0.43 0.48 0.50 0.50 0.48 0.47 0.48 0.54 0.56 0.54 0.54 0.57 0.65 0.74 0.73 0.69 0.60 0.41
0.33 0.48 0.68 0.77 0.53 0.32 0.16 0.05 0.02 0.02 0.04 0.04 0.05 0.06 0.09 0.13 0.15 0.15 0.17 0.23 0.27 0.26 0.32 0.46 0.64 0.68 0.65 0.58 0.48 0.46 0.48 0.49 0.57 0.60 0.60 0.62 0.60 0.60 0.57 0.59 0.57 0.53 0.52 0.57 0.59 0.49 0.44 0.39 0.28
0.53 0.74 0.93 0.85 0.58 0.31 0.16 0.06 0.03 0.03 0.04 0.05 0.06 0.10 0.17 0.19 0.19 0.21 0.22 0.29 0.37 0.40 0.41 0.57 0.74 0.81 0.78 0.68 0.59 0.54 0.55 0.57 0.61 0.67 0.73 0.76 0.77 0.71 0.63 0.58 0.55 0.50 0.44 0.39 0.36 0.33 0.28 0.26 0.22
0.85 1.10 1.13 0.90 0.52 0.24 0.12 0.10 0.06 0.06 0.05 0.05 0.08 0.14 0.21 0.21 0.24 0.27 0.31 0.38 0.41 0.52 0.58 0.74 0.92 1.00 0.99 0.84 0.73 0.69 0.66 0.66 0.67 0.70 0.76 0.83 0.90 0.86 0.74 0.60 0.46 0.40 0.36 0.32 0.27 0.25 0.24 0.21 0.18
1.16 1.29 1.17 0.84 0.40 0.19 0.10 0.10 0.09 0.08 0.08 0.09 0.11 0.16 0.27 0.26 0.32 0.45 0.46 0.48 0.48 0.54 0.67 0.86 1.10 1.17 1.17 1.05 0.95 0.91 0.87 0.83 0.79 0.77 0.81 0.87 0.87 0.81 0.73 0.54 0.40 0.34 0.34 0.32 0.28 0.24 0.25 0.23 0.19
1.36 1.41 1.12 0.68 0.32 0.16 0.10 0.10 0.13 0.13 0.12 0.15 0.19 0.26 0.37 0.42 0.51 0.61 0.65 0.63 0.57 0.58 0.75 0.97 1.25 1.28 1.26 1.20 1.09 1.06 1.06 1.03 0.98 0.93 0.92 0.93 0.89 0.80 0.68 0.55 0.46 0.38 0.35 0.35 0.32 0.28 0.26 0.26 0.23
1.31 1.27 0.91 0.50 0.29 0.19 0.13 0.13 0.17 0.18 0.17 0.19 0.23 0.33 0.50 0.65 0.79 0.82 0.88 0.90 0.86 0.84 0.95 1.11 1.33 1.42 1.44 1.34 1.20 1.12 1.13 1.15 1.12 1.04 0.96 0.88 0.82 0.77 0.67 0.56 0.50 0.45 0.40 0.38 0.34 0.32 0.28 0.28 0.27
1.28 1.44 0.86 0.50 0.32 0.24 0.16 0.15 0.18 0.23 0.24 0.21 0.28 0.39 0.54 0.75 1.01 1.14 1.23 1.30 1.25 1.20 1.26 1.35 1.42 1.44 1.44 1.38 1.27 1.20 1.16 1.18 1.23 1.16 0.96 0.82 0.74 0.73 0.68 0.54 0.50 0.46 0.43 0.40 0.35 0.33 0.30 0.29 0.26
1.23 1.58 0.96 0.48 0.40 0.29 0.24 0.22 0.23 0.27 0.34 0.30 0.31 0.40 0.57 0.83 1.22 1.45 1.69 1.72 1.67 1.63 1.55 1.59 1.61 1.59 1.58 1.52 1.37 1.34 1.25 1.20 1.21 1.17 0.98 0.85 0.82 0.74 0.66 0.51 0.42 0.42 0.41 0.39 0.39 0.36 0.31 0.26 0.21
1.23 1.32 0.86 0.51 0.45 0.41 0.39 0.36 0.37 0.42 0.48 0.45 0.42 0.57 0.81 1.19 1.58 1.75 1.73 1.77 1.77 1.89 1.79 1.70 1.67 1.63 1.66 1.63 1.54 1.54 1.38 1.23 1.17 1.03 0.99 0.93 0.84 0.74 0.61 0.55 0.47 0.43 0.40 0.40 0.43 0.41 0.36 0.27 0.19
0.89 0.79 0.66 0.59 0.51 0.52 0.52 0.49 0.45 0.52 0.52 0.49 0.43 0.59 0.93 1.42 1.82 2.09 2.15 1.95 1.93 2.02 2.02 1.94 1.86 1.77 1.68 1.73 1.62 1.56 1.49 1.33 1.23 1.08 1.04 1.01 0.97 0.86 0.77 0.69 0.66 0.59 0.48 0.47 0.44 0.46 0.35 0.24 0.18
0.68 0.54 0.61 0.69 0.61 0.58 0.59 0.59 0.53 0.56 0.55 0.52 0.52 0.62 0.93 1.36 1.81 2.10 2.39 2.27 2.27 2.24 2.18 2.17 2.09 2.03 1.85 1.76 1.71 1.66 1.55 1.41 1.26 1.11 1.06 1.05 0.96 0.86 0.77 0.65 0.63 0.64 0.50 0.47 0.45 0.39 0.32 0.27 0.21
0.58 0.56 0.59 0.69 0.68 0.60 0.60 0.61 0.61 0.60 0.61 0.64 0.70 0.84 1.02 1.36 1.85 2.20 2.60 2.69 2.61 2.51 2.47 2.40 2.23 2.17 2.08 1.88 1.73 1.71 1.70 1.58 1.42 1.32 1.18 1.07 0.95 0.78 0.72 0.66 0.64 0.62 0.54 0.46 0.45 0.38 0.35 0.33 0.28
0.49 0.58 0.64 0.71 0.74 0.64 0.64 0.59 0.62 0.63 0.69 0.78 0.79 0.88 1.06 1.40 1.79 2.20 2.61 2.82 2.64 2.69 2.77 2.70 2.51 2.29 2.21 2.01 1.75 1.68 1.76 1.74 1.71 1.54 1.30 1.26 1.14 0.96 0.81 0.74 0.70 0.64 0.59 0.53 0.49 0.42 0.41 0.39 0.36
0.56 0.69 0.75 0.74 0.73 0.70 0.71 0.74 0.63 0.61 0.76 0.84 0.83 0.91 1.02 1.29 1.71 2.07 2.35 2.57 2.61 2.62 2.84 2.90 2.77 2.61 2.38 2.23 2.01 1.77 1.83 1.86 1.82 1.70 1.52 1.44 1.38 1.24 1.06 0.91 0.78 0.67 0.63 0.62 0.63 0.61 0.56 0.49 0.43
0.88 0.97 0.90 0.68 0.70 0.70 0.82 0.84 0.61 0.60 0.72 0.82 0.85 0.91 1.00 1.13 1.55 1.97 2.19 2.42 2.64 2.63 2.70 2.92 2.92 2.86 2.71 2.51 2.28 1.96 1.84 1.87 1.82 1.70 1.61 1.53 1.47 1.39 1.29 1.11 0.94 0.84 0.80 0.77 0.74 0.72 0.67 0.58 0.49
1.24 1.04 0.71 0.62 0.65 0.71 0.76 0.79 0.62 0.57 0.68 0.76 0.84 0.88 0.94 1.02 1.29 1.76 2.08 2.24 2.54 2.60 2.65 2.81 2.91 2.94 3.01 2.93 2.75 2.38 2.05 1.99 1.94 1.81 1.62 1.55 1.52 1.45 1.38 1.25 1.12 1.08 1.00 0.88 0.81 0.76 0.70 0.67 0.61
0.89 0.68 0.54 0.59 0.61 0.62 0.65 0.70 0.67 0.65 0.70 0.72 0.82 0.90 0.93 0.97 1.08 1.42 1.90 2.09 2.55 2.79 2.86 2.86 2.97 3.16 3.32 3.42 3.25 2.97 2.51 2.20 2.05 1.91 1.74 1.62 1.56 1.52 1.46 1.39 1.29 1.20 1.19 1.10 0.98 0.87 0.81 0.76 0.71
0.67 0.59 0.51 0.50 0.51 0.60 0.62 0.67 0.73 0.71 0.68 0.73 0.83 0.89 0.92 0.94 1.03 1.31 1.73 2.00 2.41 2.84 2.99 3.03 2.96 3.13 3.43 3.38 3.16 2.89 2.59 2.36 2.14 2.00 1.88 1.76 1.66 1.58 1.51 1.40 1.41 1.38 1.29 1.23 1.17 1.12 1.05 0.97 0.93
0.83 0.75 0.59 0.55 0.52 0.64 0.64 0.67 0.65 0.66 0.64 0.65 0.73 0.80 0.83 0.81 0.93 1.21 1.50 1.81 2.04 2.61 2.93 2.96 3.04 3.16 3.35 3.29 3.18 3.10 2.95 2.72 2.47 2.29 2.01 1.83 1.72 1.63 1.59 1.49 1.38 1.41 1.43 1.34 1.29 1.28 1.28 1.22 1.19
0.90 0.78 0.61 0.63 0.70 0.68 0.66 0.72 0.61 0.57 0.56 0.56 0.68 0.74 0.74 0.75 0.89 1.08 1.27 1.54 1.69 2.07 2.52 2.72 2.76 2.96 3.13 3.33 3.62 3.61 3.44 3.05 2.58 2.27 2.11 1.95 1.92 1.83 1.69 1.68 1.61 1.47 1.47 1.42 1.32 1.23 1.23 1.25 1.27
0.91 0.61 0.61 0.66 0.84 0.88 0.70 0.90 0.64 0.55 0.54 0.54 0.64 0.71 0.72 0.73 0.82 0.99 1.13 1.24 1.44 1.68 2.07 2.44 2.64 2.76 2.81 2.94 3.25 3.40 3.26 2.88 2.49 2.23 2.19 2.20 2.13 2.10 2.02 1.89 1.83 1.71 1.60 1.53 1.49 1.44 1.36 1.33 1.32
0.82 0.56 0.67 0.77 0.91 0.93 0.65 0.79 0.68 0.55 0.59 0.58 0.64 0.71 0.74 0.77 0.87 0.97 1.04 1.05 1.17 1.41 1.78 2.13 2.40 2.61 2.63 2.58 2.74 3.01 3.16 3.05 2.86 2.60 2.42 2.32 2.25 2.14 2.10 2.04 1.98 1.86 1.75 1.70 1.69 1.62 1.57 1.53 1.46
0.86 0.90 1.04 1.16 1.48 1.49 0.64 0.62 0.64 0.64 0.71 0.64 0.62 0.71 0.78 0.86 0.93 0.96 1.00 1.00 1.05 1.20 1.46 1.76 2.04 2.36 2.53 2.48 2.56 2.67 2.75 2.90 2.86 2.60 2.52 2.41 2.39 2.28 2.13 2.03 2.00 1.96 1.90 1.84 1.82 1.82 1.74 1.64 1.57
1.34 1.83 2.35 2.34 2.12 1.24 0.39 0.45 0.68 0.61 0.64 0.63 0.64 0.70 0.75 0.78 0.83 0.84 0.84 0.88 0.99 1.11 1.25 1.47 1.60 1.88 2.17 2.30 2.35 2.40 2.48 2.57 2.68 2.62 2.52 2.47 2.34 2.24 2.18 2.07 2.03 2.03 1.93 1.89 1.88 1.83 1.77 1.72 1.65
1.37 1.63 1.83 1.61 1.07 0.58 0.33 0.53 0.66 0.55 0.54 0.54 0.57 0.63 0.74 0.81 0.84 0.85 0.83 0.87 1.00 1.07 1.15 1.29 1.41 1.54 1.80 2.01 2.04 2.08 2.23 2.31 2.31 2.39 2.35 2.31 2.24 2.17 2.19 2.18 2.06 2.03 1.99 1.89 1.84 1.79 1.69 1.67 1.66
1.32 1.24 1.00 1.27 0.92 0.66 0.51 0.48 0.50 0.43 0.46 0.49 0.49 0.54 0.68 0.77 0.80 0.85 0.88 0.91 0.97 1.01 1.08 1.18 1.27 1.31 1.44 1.69 1.81 1.88 1.93 1.95 1.90 1.92 1.94 1.97 2.01 2.02 2.04 2.07 1.97 1.89 1.87 1.83 1.79 1.74 1.64 1.58 1.54
1.17 1.04 1.14 1.56 1.33 0.95 0.56 0.46 0.62 0.55 0.52 0.51 0.51 0.54 0.63 0.72 0.79 0.85 0.89 0.86 0.86 0.91 0.99 1.09 1.13 1.13 1.18 1.32 1.46 1.62 1.69 1.68 1.70 1.69 1.64 1.63 1.62 1.67 1.74 1.79 1.79 1.73 1.69 1.67 1.65 1.59 1.56 1.54 1.45
1.00 1.16 1.26 1.26 1.05 1.06 0.75 0.63 0.63 0.59 0.57 0.57 0.62 0.62 0.66 0.70 0.81 0.88 0.93 0.89 0.86 0.90 0.96 1.03 1.02 1.02 1.06 1.13 1.19 1.28 1.40 1.47 1.51 1.49 1.38 1.38 1.36 1.34 1.39 1.39 1.42 1.46 1.47 1.48 1.47 1.44 1.43 1.44 1.39
0.79 0.89 1.07 1.39 1.08 0.83 0.80 0.65 0.49 0.51 0.53 0.56 0.65 0.66 0.64 0.66 0.72 0.80 0.89 0.88 0.89 0.93 0.97 1.02 0.99 0.99 1.00 1.04 1.05 1.08 1.17 1.31 1.35 1.38 1.30 1.21 1.23 1.18 1.19 1.19 1.17 1.17 1.18 1.22 1.24 1.22 1.23 1.27 1.26

GEFSSGP_prec_meanprecacc_270.txt.gz
Total_Precipitation_Accumulation
0.29 0.34 0.43 0.57 0.51 0.35 0.16 0.05 0.01 0.02 0.04 0.04 0.05 0.05 0.06 0.09 0.14 0.19 0.16 0.17 0.17 0.19 0.28 0.47 0.64 0.64 0.59 0.54 0.47 0.42 0.43 0.47 0.52 0.54 0.54 0.51 0.50 0.50 0.56 0.58 0.58 0.59 0.61 0.69 0.77 0.75 0.71 0.62 0.43
0.33 0.48 0.69 0.78 0.54 0.32 0.16 0.05 0.02 0.02 0.04 0.04 0.05 0.06 0.09 0.13 0.15 0.15 0.17 0.24 0.27 0.27 0.32 0.47 0.65 0.68 0.66 0.59 0.50 0.48 0.51 0.53 0.61 0.64 0.64 0.66 0.64 0.62 0.60 0.62 0.60 0.56 0.55 0.59 0.61 0.52 0.46 0.40 0.29
0.53 0.75 0.93 0.85 0.58 0.31 0.16 0.06 0.03 0.03 0.04 0.05 0.06 0.10 0.17 0.19 0.19 0.21 0.23 0.29 0.37 0.41 0.42 0.58 0.74 0.82 0.79 0.69 0.61 0.57 0.59 0.61 0.65 0.72 0.78 0.81 0.83 0.76 0.68 0.62 0.58 0.52 0.46 0.40 0.37 0.33 0.29 0.27 0.23
0.85 1.11 1.14 0.90 0.52 0.24 0.12 0.10 0.06 0.06 0.05 0.05 0.08 0.14 0.21 0.21 0.24 0.27 0.31 0.38 0.41 0.53 0.59 0.76 0.93 1.01 1.01 0.85 0.75 0.71 0.69 0.70 0.71 0.74 0.81 0.88 0.96 0.93 0.79 0.64 0.49 0.42 0.38 0.33 0.28 0.26 0.25 0.21 0.18
1.16 1.30 1.17 0.84 0.40 0.19 0.10 0.10 0.09 0.08 0.08 0.09 0.11 0.16 0.27 0.26 0.32 0.45 0.46 0.48 0.48 0.55 0.68 0.88 1.11 1.18 1.19 1.08 0.97 0.93 0.90 0.87 0.83 0.82 0.86 0.93 0.93 0.86 0.77 0.57 0.43 0.38 0.36 0.34 0.29 0.26 0.27 0.24 0.20
1.37 1.42 1.12 0.68 0.32 0.16 0.10 0.11 0.13 0.13 0.12 0.15 0.19 0.26 0.37 0.42 0.51 0.62 0.66 0.64 0.58 0.60 0.78 0.99 1.27 1.31 1.29 1.24 1.12 1.09 1.10 1.08 1.03 0.98 0.98 0.99 0.95 0.85 0.72 0.59 0.48 0.41 0.38 0.37 0.34 0.30 0.28 0.27 0.24
1.32 1.27 0.92 0.50 0.29 0.19 0.13 0.13 0.17 0.18 0.17 0.19 0.23 0.33 0.50 0.65 0.80 0.83 0.89 0.92 0.88 0.86 0.98 1.15 1.37 1.45 1.47 1.38 1.24 1.17 1.18 1.20 1.16 1.09 1.03 0.95 0.88 0.82 0.71 0.59 0.53 0.47 0.43 0.41 0.36 0.34 0.30 0.29 0.28
1.29 1.44 0.86 0.50 0.32 0.24 0.16 0.15 0.18 0.23 0.24 0.21 0.28 0.39 0.54 0.75 1.01 1.15 1.24 1.32 1.28 1.23 1.31 1.40 1.47 1.49 1.49 1.42 1.30 1.24 1.19 1.23 1.27 1.20 1.00 0.86 0.79 0.78 0.72 0.57 0.52 0.48 0.45 0.43 0.38 0.35 0.31 0.29 0.27
1.24 1.60 0.96 0.48 0.40 0.29 0.24 0.22 0.23 0.27 0.34 0.30 0.31 0.40 0.57 0.84 1.24 1.48 1.72 1.75 1.71 1.68 1.61 1.65 1.66 1.65 1.63 1.56 1.40 1.38 1.29 1.25 1.25 1.21 1.01 0.88 0.86 0.79 0.71 0.55 0.46 0.45 0.44 0.42 0.41 0.37 0.32 0.27 0.22
1.25 1.33 0.86 0.51 0.45 0.41 0.39 0.36 0.37 0.42 0.48 0.45 0.42 0.57 0.82 1.20 1.60 1.78 1.75 1.79 1.80 1.93 1.83 1.75 1.73 1.69 1.73 1.68 1.60 1.62 1.46 1.30 1.21 1.07 1.02 0.98 0.91 0.80 0.67 0.60 0.51 0.47 0.43 0.43 0.45 0.43 0.38 0.29 0.20
0.90 0.80 0.66 0.59 0.51 0.52 0.52 0.49 0.45 0.52 0.52 0.50 0.43 0.59 0.93 1.43 1.84 2.11 2.18 1.98 1.96 2.05 2.06 1.99 1.93 1.84 1.75 1.81 1.70 1.64 1.58 1.41 1.31 1.14 1.09 1.08 1.06 0.95 0.85 0.74 0.71 0.64 0.52 0.50 0.47 0.48 0.37 0.26 0.19
0.69 0.55 0.61 0.69 0.61 0.58 0.59 0.59 0.53 0.56 0.55 0.52 0.52 0.62 0.93 1.37 1.83 2.12 2.42 2.30 2.30 2.28 2.23 2.22 2.15 2.09 1.91 1.83 1.77 1.72 1.62 1.48 1.34 1.19 1.14 1.12 1.06 0.97 0.86 0.72 0.69 0.69 0.55 0.52 0.48 0.42 0.35 0.28 0.22
0.60 0.57 0.60 0.69 0.68 0.60 0.60 0.61 0.61 0.60 0.61 0.64 0.70 0.84 1.03 1.37 1.86 2.22 2.62 2.72 2.64 2.56 2.52 2.45 2.29 2.23 2.14 1.95 1.80 1.78 1.77 1.64 1.48 1.38 1.25 1.13 1.02 0.88 0.81 0.74 0.72 0.71 0.62 0.54 0.50 0.41 0.39 0.35 0.30
0.51 0.59 0.65 0.72 0.75 0.65 0.64 0.59 0.62 0.63 0.69 0.78 0.79 0.88 1.07 1.40 1.81 2.22 2.64 2.85 2.67 2.74 2.82 2.76 2.56 2.35 2.27 2.07 1.81 1.75 1.83 1.81 1.79 1.61 1.36 1.31 1.21 1.04 0.91 0.82 0.78 0.73 0.67 0.61 0.55 0.47 0.45 0.43 0.38
0.58 0.71 0.76 0.75 0.74 0.70 0.72 0.75 0.63 0.61 0.76 0.84 0.83 0.91 1.03 1.30 1.72 2.08 2.38 2.60 2.65 2.66 2.89 2.95 2.82 2.66 2.44 2.30 2.07 1.84 1.90 1.93 1.89 1.77 1.59 1.50 1.44 1.32 1.16 1.01 0.87 0.75 0.70 0.69 0.69 0.67 0.61 0.53 0.46
0.91 1.00 0.93 0.70 0.71 0.71 0.84 0.85 0.61 0.61 0.72 0.82 0.86 0.92 1.00 1.14 1.56 1.98 2.22 2.46 2.69 2.68 2.76 2.97 2.96 2.90 2.75 2.55 2.32 2.02 1.90 1.93 1.88 1.74 1.66 1.58 1.51 1.44 1.35 1.16 1.02 0.94 0.90 0.86 0.81 0.78 0.74 0.63 0.53
1.28 1.07 0.74 0.64 0.67 0.73 0.78 0.80 0.63 0.57 0.68 0.76 0.85 0.88 0.95 1.03 1.30 1.78 2.10 2.28 2.59 2.65 2.70 2.87 2.95 2.98 3.04 2.96 2.78 2.42 2.09 2.04 2.00 1.87 1.66 1.60 1.56 1.48 1.41 1.27 1.14 1.12 1.09 0.99 0.89 0.83 0.76 0.71 0.65
0.93 0.71 0.56 0.61 0.63 0.64 0.67 0.71 0.69 0.66 0.71 0.73 0.83 0.91 0.94 0.98 1.09 1.44 1.93 2.13 2.60 2.84 2.91 2.92 3.02 3.20 3.35 3.44 3.28 3.01 2.53 2.23 2.09 1.96 1.79 1.65 1.59 1.54 1.48 1.40 1.30 1.22 1.23 1.17 1.07 0.96 0.89 0.81 0.75
0.69 0.61 0.53 0.53 0.53 0.62 0.64 0.69 0.74 0.72 0.68 0.74 0.84 0.90 0.93 0.95 1.04 1.33 1.75 2.04 2.45 2.88 3.04 3.09 3.01 3.17 3.46 3.40 3.19 2.92 2.61 2.38 2.16 2.02 1.91 1.79 1.70 1.61 1.53 1.41 1.42 1.39 1.31 1.26 1.23 1.19 1.14 1.05 0.99
0.87 0.79 0.62 0.58 0.54 0.67 0.66 0.69 0.67 0.67 0.65 0.66 0.74 0.81 0.84 0.83 0.95 1.24 1.53 1.84 2.07 2.64 2.96 3.00 3.08 3.19 3.37 3.32 3.21 3.12 2.97 2.73 2.49 2.32 2.04 1.87 1.75 1.66 1.61 1.51 1.39 1.42 1.44 1.37 1.34 1.33 1.33 1.29 1.25
0.95 0.82 0.64 0.66 0.73 0.72 0.69 0.75 0.62 0.58 0.57 0.57 0.68 0.75 0.76 0.77 0.91 1.10 1.30 1.57 1.72 2.10 2.55 2.75 2.79 3.00 3.16 3.37 3.65 3.64 3.46 3.07 2.60 2.31 2.15 1.98 1.95 1.85 1.70 1.69 1.62 1.48 1.48 1.44 1.36 1.29 1.28 1.30 1.32
0.95 0.63 0.64 0.69 0.88 0.93 0.75 0.96 0.67 0.56 0.55 0.55 0.65 0.72 0.74 0.75 0.85 1.01 1.16 1.27 1.46 1.70 2.10 2.48 2.67 2.80 2.85 2.98 3.29 3.43 3.29 2.89 2.50 2.26 2.25 2.26 2.16 2.12 2.03 1.90 1.84 1.71 1.61 1.54 1.52 1.50 1.42 1.39 1.37
0.85 0.59 0.70 0.80 0.95 0.98 0.69 0.84 0.73 0.57 0.61 0.61 0.65 0.72 0.75 0.80 0.90 1.00 1.07 1.08 1.20 1.44 1.81 2.16 2.44 2.65 2.67 2.62 2.77 3.04 3.18 3.07 2.87 2.61 2.45 2.39 2.30 2.17 2.12 2.05 1.99 1.87 1.75 1.71 1.71 1.66 1.63 1.59 1.50
0.90 0.95 1.09 1.21 1.55 1.56 0.69 0.67 0.70 0.68 0.75 0.67 0.65 0.74 0.80 0.90 0.97 0.99 1.02 1.03 1.08 1.23 1.49 1.80 2.08 2.41 2.58 2.52 2.59 2.70 2.78 2.92 2.88 2.61 2.53 2.44 2.46 2.35 2.17 2.06 2.02 1.97 1.90 1.84 1.84 1.85 1.79 1.70 1.62
1.39 1.91 2.46 2.45 2.23 1.32 0.43 0.50 0.74 0.66 0.68 0.68 0.69 0.74 0.78 0.81 0.88 0.89 0.89 0.92 1.03 1.15 1.29 1.51 1.64 1.92 2.21 2.34 2.38 2.44 2.51 2.60 2.71 2.64 2.54 2.48 2.36 2.29 2.23 2.11 2.06 2.04 1.94 1.89 1.89 1.86 1.80 1.77 1.70
1.43 1.71 1.91 1.68 1.12 0.63 0.38 0.58 0.72 0.60 0.58 0.60 0.63 0.69 0.79 0.86 0.90 0.91 0.89 0.93 1.06 1.12 1.20 1.33 1.45 1.58 1.84 2.06 2.09 2.13 2.28 2.35 2.35 2.41 2.37 2.32 2.26 2.19 2.22 2.21 2.08 2.04 2.00 1.90 1.85 1.81 1.73 1.72 1.71
1.36 1.29 1.04 1.32 0.95 0.71 0.58 0.54 0.54 0.45 0.49 0.52 0.53 0.58 0.72 0.82 0.85 0.91 0.94 0.98 1.03 1.07 1.13 1.23 1.32 1.35 1.49 1.75 1.87 1.94 2.00 2.01 1.94 1.96 1.97 1.99 2.02 2.04 2.06 2.08 1.99 1.90 1.88 1.83 1.79 1.74 1.65 1.61 1.60
1.20 1.07 1.17 1.61 1.38 1.00 0.61 0.50 0.67 0.59 0.56 0.55 0.56 0.58 0.67 0.77 0.84 0.91 0.95 0.92 0.92 0.95 1.04 1.15 1.18 1.18 1.23 1.39 1.52 1.68 1.76 1.75 1.76 1.73 1.67 1.65 1.64 1.69 1.76 1.81 1.80 1.74 1.70 1.68 1.65 1.60 1.57 1.56 1.49
1.02 1.19 1.29 1.29 1.08 1.10 0.79 0.69 0.69 0.63 0.61 0.61 0.67 0.67 0.71 0.75 0.86 0.94 0.98 0.93 0.90 0.93 0.99 1.08 1.07 1.07 1.10 1.19 1.26 1.34 1.47 1.54 1.57 1.53 1.41 1.40 1.37 1.36 1.40 1.41 1.44 1.47 1.48 1.49 1.48 1.45 1.44 1.45 1.41
0.81 0.91 1.09 1.43 1.10 0.85 0.83 0.72 0.54 0.54 0.57 0.60 0.70 0.71 0.70 0.71 0.78 0.85 0.92 0.91 0.92 0.96 0.99 1.05 1.03 1.04 1.04 1.08 1.11 1.15 1.24 1.38 1.42 1.44 1.34 1.24 1.25 1.20 1.20 1.20 1.18 1.18 1.19 1.23 1.25 1.23 1.25 1.29 1.28